This is the latest recevied weather packets stored in our database for station/object KA3WVU. If no packets are shown the sender has not sent any weather packets the latest 10 day(s).
| Time | Temp. | Humidity | Pressure | Rain* | Wind** | Luminosity | Snow |
|---|---|---|---|---|---|---|---|
| 1777722476 | 0° C | 99% | 1014.1 hPa | 0 mm | - | 41 W/m² | - |
| 1777722173 | 0° C | 99% | 1014 hPa | 0 mm | - | 46 W/m² | - |
| 1777721870 | 0° C | 99% | 1013.9 hPa | 0 mm | - | 55 W/m² | - |
| 1777721568 | 0° C | 99% | 1014 hPa | 0 mm | - | 40 W/m² | - |
| 1777721266 | 0° C | 99% | 1013.8 hPa | 0 mm | - | 35 W/m² | - |
| 1777720963 | -0.56° C | 99% | 1014 hPa | 0 mm | - | 27 W/m² | - |
| 1777720660 | -0.56° C | 99% | 1014 hPa | 0 mm | - | 27 W/m² | - |
| 1777720357 | -0.56° C | 99% | 1014 hPa | 0 mm | - | 20 W/m² | - |
| 1777720055 | -0.56° C | 99% | 1014.1 hPa | 0 mm | - | 15 W/m² | - |
| 1777719752 | -0.56° C | 99% | 1013.9 hPa | 0 mm | - | 12 W/m² | - |
| 1777719450 | -0.56° C | 99% | 1014 hPa | 0 mm | - | 11 W/m² | - |
| 1777719146 | -0.56° C | 99% | 1013.9 hPa | 0 mm | - | 12 W/m² | - |
| 1777718844 | -0.56° C | 99% | 1013.9 hPa | 0 mm | - | 7 W/m² | - |
| 1777718541 | -0.56° C | 99% | 1013.6 hPa | 0 mm | - | 7 W/m² | - |
| 1777718239 | -0.56° C | 99% | 1013.6 hPa | 0 mm | - | 8 W/m² | - |
| 1777717937 | -0.56° C | 99% | 1013.5 hPa | 0 mm | - | 7 W/m² | - |
| 1777717633 | -0.56° C | 99% | 1013.9 hPa | 0 mm | - | 5 W/m² | - |
| 1777717330 | -0.56° C | 99% | 1013.8 hPa | 0 mm | - | 4 W/m² | - |
| 1777717028 | -0.56° C | 99% | 1013.6 hPa | 0 mm | - | 3 W/m² | - |
| 1777716726 | -0.56° C | 99% | 1013.5 hPa | 0 mm | - | 2 W/m² | - |
| 1777716424 | -0.56° C | 99% | 1013.4 hPa | 0 mm | - | 1 W/m² | - |
| 1777716122 | -0.56° C | 99% | 1013.4 hPa | 0 mm | - | 0 W/m² | - |
| 1777715820 | -0.56° C | 99% | 1013.4 hPa | 0 mm | - | 0 W/m² | - |
| 1777715517 | -0.56° C | 99% | 1013.5 hPa | 0 mm | - | 0 W/m² | - |
| 1777715214 | -0.56° C | 99% | 1013.4 hPa | 0 mm | - | 0 W/m² | - |
* Rain latest hour (hover to see other rain measurements)
** Current wind speed in m/s (hover to see current wind gust speed)